Preview of NWS' New Version of Forecast
This preview is not operational and should not be used for support decisions.

Regional Weather Roundup (RWR)

Issued by Philadelphia/Mt Holly (PHI)

                            
000
ASUS41 KPHI 231812
RWRPHI

REGIONAL WEATHER ROUNDUP
NATIONAL WEATHER SERVICE MOUNT HOLLY NJ
200 PM EDT SAT MAR 23 2019

NOTE:  "FAIR" INDICATES FEW OR NO CLOUDS BELOW 12,000 FEET WITH NO
SIGNIFICANT WEATHER AND/OR OBSTRUCTIONS TO VISIBILITY.

 * = STATION DOES NOT REPORT PRECIPITATION (E.G. RAIN, SNOW, ETC.) 
        OR FOG.

NJZ015>026-231900-
SOUTHERN NEW JERSEY
  
CITY           SKY/WX    TMP DP  RH WIND       PRES   REMARKS
POMONA         FAIR      49  21  33 W24G38    29.97R                  
6HR MIN TEMP:  36; 6HR MAX TEMP:  49;                                

WILDWOOD*      FAIR      47  25  42 W20G26    30.03S                  
MILLVILLE      FAIR      49  19  30 NW21G35   30.02R                  
MOUNT HOLLY    FAIR      48  17  29 NW14G28   29.99R                  
TRENTON        FAIR      46  18  32 W18G31    29.97R                  
6HR MIN TEMP:  35; 6HR MAX TEMP:  47;                                


$$
NJZ001>014-231900-
NORTHERN NEW JERSEY
  
CITY           SKY/WX    TMP DP  RH WIND       PRES   REMARKS
SUSSEX         FAIR      42  22  44 W9G23     29.94R                  
ANDOVER*         N/A     41  19  41 NW10G21   29.95R                  
MORRISTOWN     MOSUNNY   45  25  45 NW25G35   29.94R                  
NEWARK         FAIR      47  19  33 W28G39    29.92R                  
TETERBORO      FAIR      46  24  42 NW17G32   29.90R                  
CALDWELL       FAIR      45  20  36 NW18G29   29.93R                  
SOMERVILLE     FAIR      47  20  34 NW17G26   29.95R                  
ALLAIRE*       FAIR      47  20  34 W29G40    29.92R                  
TOMS RIVER*    FAIR      48  21  34 W22G33    29.95R                  

$$
PAZ043-044-047-054-055-060>062-066>071-231900-
EASTERN PENNSYLVANIA
  
CITY           SKY/WX    TMP DP  RH WIND       PRES   REMARKS
PHILADELPHIA   FAIR      49  14  24 NW16G31   30.02R                  
6HR MIN TEMP:  37; 6HR MAX TEMP:  49;                                

NORTH PHILA    FAIR      50  17  27 NW15G30   30.01R                  
BLUE BELL*     FAIR      45  18  33 NW15G25   30.02S                  
DOYLESTOWN     FAIR      48  16  27 NW16G29   29.98R                  
QUAKERTOWN*    SUNNY     45  14  29 W10G21    30.01                   
PERKASIE*      FAIR      45  14  29 NW16G24   30.00S                  
POTTSTOWN      FAIR      45  17  32 NW14G30   30.03R                  
LANCASTER      FAIR      48  18  30 NW15G30   30.06R                  
COATESVILLE    FAIR      45  16  31 NW20G29   30.05R                  
READING        FAIR     N/A N/A N/A MISG      30.03R                  
ALLENTOWN      FAIR      48  11  22 NW20G29   30.00R                  
6HR MIN TEMP:  36; 6HR MAX TEMP:  48;                                

MOUNT POCONO   FAIR      31  13  47 W23G33    29.93R WCI  18          
6HR MIN TEMP:  24; 6HR MAX TEMP:  32;                                

HAZLETON       FAIR      39   9  28 W16G28    30.00R WCI  30          
LEHIGHTON      FAIR      45   9  23 W10G20    30.02R                  
WILKES BARRE   FAIR      40  14  34 NW15G26   30.01R WCI  32          

$$
DEZALL-MDZ008-012-015-019-020-231900-
DELAWARE AND EASTERN MARYLAND
  
CITY           SKY/WX    TMP DP  RH WIND       PRES   REMARKS
WILMINGTON     FAIR      49  15  25 NW29G38   30.05R                  
6HR MIN TEMP:  35; 6HR MAX TEMP:  50;                                

GEORGETOWN     FAIR      51  20  29 NW9G29    30.06R                  
6HR MIN TEMP:  39; 6HR MAX TEMP:  51; 6HR PCP: TRACE;                

EASTON         SUNNY     50  21  32 W16G26    30.14R                  
PATUXENT       FAIR      51  20  29 W24       30.12                   
OCEAN CITY     FAIR      50  27  40 NW21G29   30.06R                  
WALLOPS ISLAND FAIR      50  18  28 W20G32    30.09S                  
CAMBRIDGE      SUNNY     46  21  36 W15G28    30.12R                  
SALISBURY      FAIR      48  23  37 W22G32    30.09R                  

$$
PAZ001-021-NYZ056-072-MDZ011-DCZ001-231900-
OTHER NEARBY LOCATIONS
  
CITY           SKY/WX    TMP DP  RH WIND       PRES   REMARKS
HARRISBURG     FAIR      48  15  26 NW22G30   30.07S                  
STATE COLLEGE  SUNNY     41  12  30 W16G24    30.11R                  
WILLIAMSPORT   FAIR      45   6  20 W22G28    30.06R                  
BINGHAMTON     FAIR      29  13  51 W21G28    29.98R WCI  16          
NEW YORK CITY  FAIR      46  20  35 W12G28    29.92R                  
BALTIMORE      FAIR      49  19  30 W20G30    30.11R                  
WASHINGTON DC  FAIR      50  19  29 NW20G28   30.16S                  

$$